This is the latest recevied weather packets stored in our database for station/object EB5AGF-13. If no packets are shown the sender has not sent any weather packets the latest 10 day(s).
| Time | Temp. | Humidity | Pressure | Rain* | Wind** | Luminosity | Snow |
|---|---|---|---|---|---|---|---|
| 1777848873 | 18.89° C | 88% | 1010.9 hPa | 0 mm | 0 m/s | 0 W/m² | - |
| 1777848572 | 18.89° C | 88% | 1010.9 hPa | 0 mm | 0.89 m/s, 259° | 0 W/m² | - |
| 1777848272 | 18.89° C | 88% | 1010.8 hPa | 0 mm | 0.89 m/s, 257° | 0 W/m² | - |
| 1777847972 | 18.89° C | 88% | 1011 hPa | 0 mm | 0.45 m/s, 208° | 0 W/m² | - |
| 1777847672 | 18.89° C | 89% | 1011 hPa | 0 mm | 0.45 m/s, 221° | 0 W/m² | - |
| 1777847370 | 18.89° C | 89% | 1011.1 hPa | 0 mm | 1.34 m/s, 200° | 0 W/m² | - |
| 1777847065 | 18.89° C | 89% | 1010.9 hPa | 0 mm | 0.89 m/s, 136° | 0 W/m² | - |
| 1777846762 | 18.89° C | 89% | 1010.9 hPa | 0 mm | 0.45 m/s, 261° | 0 W/m² | - |
| 1777846457 | 18.89° C | 89% | 1011 hPa | 0 mm | 0.89 m/s, 253° | 0 W/m² | - |
| 1777846153 | 18.89° C | 89% | 1010.8 hPa | 0 mm | 0.89 m/s, 248° | 0 W/m² | - |
| 1777845850 | 18.89° C | 89% | 1010.9 hPa | 0 mm | 0.89 m/s, 228° | 0 W/m² | - |
| 1777845546 | 18.89° C | 90% | 1010.9 hPa | 0 mm | 1.34 m/s, 195° | 0 W/m² | - |
| 1777845241 | 18.89° C | 90% | 1010.8 hPa | 0 mm | 0 m/s | 0 W/m² | - |
| 1777844937 | 18.89° C | 90% | 1011 hPa | 0 mm | 1.79 m/s, 133° | 0 W/m² | - |
| 1777844633 | 18.89° C | 89% | 1011.1 hPa | 0 mm | 1.79 m/s, 154° | 0 W/m² | - |
| 1777844330 | 18.89° C | 89% | 1011 hPa | 0 mm | 1.79 m/s, 218° | 0 W/m² | - |
| 1777844025 | 18.89° C | 89% | 1011.2 hPa | 0 mm | 0.89 m/s, 230° | 0 W/m² | - |
| 1777843721 | 18.89° C | 89% | 1011.4 hPa | 0 mm | 1.34 m/s, 186° | 0 W/m² | - |
| 1777843417 | 18.89° C | 89% | 1011.1 hPa | 0 mm | 1.79 m/s, 213° | 0 W/m² | - |
| 1777843114 | 19.44° C | 88% | 1011.2 hPa | 0 mm | 2.24 m/s, 182° | 0 W/m² | - |
| 1777842812 | 19.44° C | 88% | 1011.5 hPa | 0 mm | 1.34 m/s, 198° | 0 W/m² | - |
| 1777842512 | 19.44° C | 88% | 1011.5 hPa | 0 mm | 1.79 m/s, 177° | 0 W/m² | - |
| 1777842212 | 19.44° C | 88% | 1011.3 hPa | 0 mm | 1.79 m/s, 173° | 0 W/m² | - |
| 1777841913 | 19.44° C | 88% | 1011.1 hPa | 0 mm | 1.34 m/s, 176° | 0 W/m² | - |
| 1777841612 | 19.44° C | 87% | 1011 hPa | 0 mm | 1.34 m/s, 220° | 0 W/m² | - |
* Rain latest hour (hover to see other rain measurements)
** Current wind speed in m/s (hover to see current wind gust speed)